TimeCDT,TemperatureF,Dew PointF,Humidity,Sea Level PressureIn,VisibilityMPH,Wind Direction,Wind SpeedMPH,Gust SpeedMPH,PrecipitationIn,Events,Conditions,WindDirDegrees,DateUTC
12:53 AM,72.0,57.9,61,30.01,10.0,SE,8.1,-,N/A,,Clear,130,2013-07-12 05:53:00
1:53 AM,71.1,57.9,63,30.01,10.0,SE,6.9,-,N/A,,Clear,130,2013-07-12 06:53:00
2:53 AM,68.0,59.0,73,30.01,10.0,SSE,5.8,-,N/A,,Clear,150,2013-07-12 07:53:00
3:53 AM,69.1,59.0,70,30.01,10.0,SE,8.1,-,N/A,,Clear,140,2013-07-12 08:53:00
4:53 AM,68.0,60.1,76,30.01,10.0,SE,8.1,-,N/A,,Clear,130,2013-07-12 09:53:00
5:53 AM,66.9,60.1,79,30.02,10.0,SSE,6.9,-,N/A,,Clear,150,2013-07-12 10:53:00
6:42 AM,66.2,60.8,83,30.05,10.0,SE,6.9,-,N/A,,Scattered Clouds,140,2013-07-12 11:42:00
6:53 AM,66.9,60.1,79,30.03,10.0,SE,6.9,-,N/A,,Partly Cloudy,140,2013-07-12 11:53:00
7:53 AM,71.1,60.1,68,30.04,10.0,SE,11.5,-,N/A,,Clear,140,2013-07-12 12:53:00
8:53 AM,73.9,60.1,62,30.04,10.0,SSE,15.0,-,N/A,,Clear,150,2013-07-12 13:53:00
9:53 AM,78.1,61.0,56,30.03,10.0,SSE,12.7,-,N/A,,Clear,160,2013-07-12 14:53:00
10:53 AM,80.1,61.0,52,30.03,10.0,SSE,13.8,19.6,N/A,,Clear,160,2013-07-12 15:53:00
11:53 AM,82.9,62.1,49,30.02,10.0,SSE,15.0,-,N/A,,Clear,160,2013-07-12 16:53:00
12:53 PM,86.0,63.0,46,30.01,10.0,SE,12.7,-,N/A,,Clear,130,2013-07-12 17:53:00
1:53 PM,87.1,63.0,44,30.00,10.0,ESE,13.8,20.7,N/A,,Clear,120,2013-07-12 18:53:00
2:53 PM,89.1,63.0,42,29.99,10.0,SE,16.1,-,N/A,,Clear,130,2013-07-12 19:53:00
3:53 PM,89.1,63.0,42,29.97,10.0,SSE,15.0,-,N/A,,Clear,150,2013-07-12 20:53:00
4:53 PM,88.0,63.0,43,29.97,10.0,SSE,13.8,21.9,N/A,,Clear,150,2013-07-12 21:53:00
5:53 PM,87.1,63.0,44,29.96,10.0,SE,15.0,-,N/A,,Clear,130,2013-07-12 22:53:00
6:53 PM,86.0,61.0,43,29.96,10.0,SE,15.0,20.7,N/A,,Clear,130,2013-07-12 23:53:00
7:53 PM,84.0,60.1,44,29.96,10.0,SE,10.4,-,N/A,,Clear,130,2013-07-13 00:53:00
8:53 PM,82.0,59.0,45,29.96,10.0,SE,9.2,-,N/A,,Clear,130,2013-07-13 01:53:00
9:53 PM,80.1,60.1,50,29.97,10.0,SE,9.2,-,N/A,,Clear,140,2013-07-13 02:53:00
10:53 PM,78.1,61.0,56,29.97,10.0,SE,9.2,-,N/A,,Clear,130,2013-07-13 03:53:00
11:53 PM,75.9,61.0,60,29.97,10.0,SE,6.9,-,N/A,,Clear,130,2013-07-13 04:53:00